Flag for Portugal Weather past 2 weeks in Beja, Portugal

Now
73 °F

Passing clouds.


Feels Like: 77 °F
Forecast: 49 / 78 °F
Wind: 12 mph from North

Location: Beja Airport

Current Time: Mar 30, 2015 at 2:50:18 PM

Latest Report: Mar 30, 2015 at 2:00 PM


Visibility: N/A

Pressure: 30.42 "Hg

Humidity: 31%

Dew point: 41 °F

Location of BejaLocation

Historic Weather in Beja — Graph

°F

Beja temperature yesterday

Maximum temperature yesterday: 75 °F (at 5:00 PM)
Minimum temperature yesterday: 45 °F (at 5:00 AM)
Average temperature yesterday: 59 °F

Past Weeks' High & Low Weather Summary

 TemperatureHumidityPressure
High77 °F (Mar 28, 4:00 PM)100% (Mar 17, 10:00 AM)30.45 "Hg (Mar 17, 10:00 AM)
Low39 °F (Mar 16, 6:00 AM)24% (Mar 15, 5:00 PM)29.59 "Hg (Mar 24, 5:00 AM)
Average54 °F77%29.99 "Hg
* Reported Mar 15 12:00 Noon — Mar 30 1:00 PM, Beja, Weather by CustomWeather, © 2015

Note: Actual official high and low records may vary slightly from our data, if they occured in-between our weather recording intervals... More about our weather records

Advertising

Beja weather history for previous 24 hours

 ConditionsComfort  
Time TempWeatherWind HumidityBarometerVisibility
1:00 PM
Mon, Mar 30
66 °FPassing clouds.9 mph56%30.42 "HgN/A
12:00 PM63 °FPassing clouds.9 mph64%30.45 "HgN/A
11:00 AM57 °FPassing clouds.9 mph67%30.45 "HgN/A
10:00 AM54 °FSunny.8 mph77%30.45 "Hg10 mi
9:00 AM48 °FSunny.10 mph94%30.45 "Hg10 mi
8:00 AM45 °FLight fog.7 mph100%30.42 "Hg4 mi
7:00 AM45 °FLight fog.8 mph93%30.39 "Hg5 mi
6:00 AM46 °FClear.7 mph93%30.39 "Hg10 mi
5:00 AM46 °FClear.7 mph93%30.39 "Hg10 mi
4:00 AM48 °FClear.10 mph94%30.39 "Hg10 mi
3:00 AM48 °FClear.13 mph94%30.39 "Hg10 mi
2:00 AM50 °FClear.9 mph94%30.42 "Hg10 mi
1:00 AM50 °FClear.10 mph94%30.42 "Hg10 mi
12:00 AM52 °FClear.12 mph88%30.42 "Hg10 mi
11:00 PM
Sun, Mar 29
55 °FClear.9 mph77%30.42 "Hg10 mi
10:00 PM59 °FClear.13 mph72%30.42 "Hg10 mi
9:00 PM61 °FClear.16 mph68%30.39 "Hg10 mi
8:00 PM64 °FSunny.12 mph56%30.36 "Hg10 mi
7:00 PM70 °FSunny.14 mph43%30.36 "Hg10 mi
6:00 PM72 °FSunny.16 mph41%30.33 "Hg10 mi
5:00 PM75 °FSunny.16 mph36%30.33 "Hg10 mi
4:00 PM73 °FPassing clouds.14 mph41%30.33 "HgN/A
3:00 PM73 °FSunny.16 mph47%30.36 "Hg10 mi
2:00 PM73 °FPassing clouds.14 mph44%30.36 "HgN/A
Weather by CustomWeather, © 2015

See weather overviewHow to use our weather pages